GW5221 Weather Reports


time (UTC)temp
C
wind
direction
speed
KPH
gust
KPH
rain 1hr
cm
rain 24hr
cm
rain mn
cm
humidity
%
barometer
mb
20260507145504 31 346 1.6 6.4 0.00 0.00 0.00 68 1020.0
20260507145002 31 354 3.2 11.3 0.00 0.00 0.00 68 1020.0
20260507144458 31 15 3.2 9.7 0.00 0.00 0.00 67 1020.2
20260507143955 31 8 3.2 16.1 0.00 0.00 0.00 68 1020.3
20260507143453 30 44 3.2 6.4 0.00 0.00 0.00 68 1020.3
20260507142949 30 23 4.8 14.5 0.00 0.00 0.00 69 1020.2
20260507142445 30 251 4.8 9.7 0.00 0.00 0.00 69 1020.3
20260507141943 30 346 4.8 9.7 0.00 0.00 0.00 70 1020.2
20260507141438 30 103 6.4 11.3 0.00 0.00 0.00 69 1020.1
20260507140935 30 302 4.8 9.7 0.00 0.00 0.00 71 1020.3
20260507140432 30 285 1.6 12.9 0.00 0.00 0.00 70 1020.3
20260507135930 30 335 1.6 6.4 0.00 0.00 0.00 71 1020.1
20260507135426 30 335 1.6 12.9 0.00 0.00 0.00 71 1020.2
20260507134924 30 36 3.2 16.1 0.00 0.00 0.00 70 1020.3
20260507134420 30 32 3.2 16.1 0.00 0.00 0.00 71 1020.2
20260507133916 30 64 8.0 12.9 0.00 0.00 0.00 71 1020.3
20260507133412 30 236 3.2 9.7 0.00 0.00 0.00 70 1020.2
20260507132911 30 11 1.6 11.3 0.00 0.00 0.00 70 1020.0
20260507132407 30 165 4.8 6.4 0.00 0.00 0.00 72 1020.3
20260507131905 30 286 3.2 6.4 0.00 0.00 0.00 71 1020.2
20260507131400 30 305 4.8 6.4 0.00 0.00 0.00 71 1020.4
20260507130857 30 209 3.2 11.3 0.00 0.00 0.00 70 1020.1
20260507130354 30 303 1.6 3.2 0.00 0.00 0.00 73 1020.0
20260507125853 30 319 4.8 6.4 0.00 0.00 0.00 71 1020.1
20260507125350 30 105 6.4 12.9 0.00 0.00 0.00 71 1019.9
20260507124848 29 153 6.4 6.4 0.00 0.00 0.00 73 1019.8
20260507124344 29 305 3.2 9.7 0.00 0.00 0.00 73 1020.1
20260507123843 29 9 4.8 12.9 0.00 0.00 0.00 73 1019.9
20260507123339 29 176 6.4 9.7 0.00 0.00 0.00 73 1019.9
20260507122835 30 320 4.8 9.7 0.00 0.00 0.00 73 1019.9
20260507122331 30 206 1.6 4.8 0.00 0.00 0.00 73 1020.0
20260507121828 30 328 3.2 14.5 0.00 0.00 0.00 72 1020.0
20260507121323 30 102 3.2 6.4 0.00 0.00 0.00 73 1019.8
20260507120820 29 311 3.2 9.7 0.00 0.00 0.00 74 1020.0
20260507120316 30 173 3.2 16.1 0.00 0.00 0.00 73 1019.8
20260507115812 29 41 3.2 3.2 0.00 0.00 0.00 75 1020.0
20260507115308 28 14 3.2 9.7 0.00 0.00 0.00 76 1019.5
20260507114804 28 248 6.4 11.3 0.00 0.00 0.00 77 1019.8
20260507114301 28 345 4.8 9.7 0.00 0.00 0.00 77 1019.7
20260507113759 28 81 3.2 4.8 0.00 0.00 0.00 78 1019.8
20260507113255 28 347 1.6 4.8 0.00 0.00 0.00 78 1019.6
20260507112753 28 352 3.2 12.9 0.00 0.00 0.00 79 1019.7
20260507112250 27 305 3.2 9.7 0.00 0.00 0.00 80 1019.5
20260507111748 27 98 1.6 6.4 0.00 0.00 0.00 80 1019.5
20260507111244 27 328 4.8 9.7 0.00 0.00 0.00 80 1019.6
20260507110740 27 49 1.6 6.4 0.00 0.00 0.00 80 1019.4
20260507110237 27 333 1.6 4.8 0.00 0.00 0.00 81 1019.5
20260507105734 27 348 0.0 3.2 0.00 0.00 0.00 81 1019.7
20260507105230 27 314 3.2 9.7 0.00 0.00 0.00 81 1019.5
20260507104727 27 296 3.2 6.4 0.00 0.00 0.00 81 1019.3
20260507104224 27 38 1.6 6.4 0.00 0.00 0.00 81 1019.5
20260507103720 27 185 4.8 9.7 0.00 0.00 0.00 82 1019.2
20260507103216 27 18 1.6 6.4 0.00 0.00 0.00 82 1019.2
20260507102713 27 181 4.8 4.8 0.00 0.00 0.00 82 1019.1
20260507102209 27 303 1.6 6.4 0.00 0.00 0.00 82 1019.2
20260507101705 27 342 3.2 4.8 0.00 0.00 0.00 82 1019.2
20260507101201 27 6 3.2 12.9 0.00 0.00 0.00 82 1018.9
20260507100658 27 154 1.6 6.4 0.00 0.00 0.00 82 1019.1
20260507100157 27 347 1.6 1.6 0.00 0.00 0.00 82 1019.1
20260507095654 27 86 3.2 12.9 0.00 0.00 0.00 82 1018.9
20260507095151 27 341 3.2 9.7 0.00 0.00 0.00 82 1019.1
20260507094647 27 333 1.6 4.8 0.00 0.00 0.00 82 1018.9
20260507094144 27 309 4.8 6.4 0.00 0.00 0.00 82 1019.1
20260507093641 27 253 1.6 6.4 0.00 0.00 0.00 82 1019.0
20260507093141 27 329 1.6 9.7 0.00 0.00 0.00 82 1018.8
20260507092636 27 305 1.6 4.8 0.00 0.00 0.00 81 1018.7
20260507092133 27 339 1.6 9.7 0.00 0.00 0.00 81 1018.7
20260507091629 27 342 3.2 6.4 0.00 0.00 0.00 82 1018.8
20260507091125 27 329 1.6 4.8 0.00 0.00 0.00 82 1018.7
20260507090621 27 298 3.2 6.4 0.00 0.00 0.00 81 1018.6
20260507090119 27 355 1.6 6.4 0.00 0.00 0.00 81 1018.7
20260507085616 27 250 1.6 3.2 0.00 0.00 0.00 81 1018.6
20260507085112 27 88 4.8 4.8 0.00 0.00 0.00 81 1018.5
20260507084609 27 307 1.6 4.8 0.00 0.00 0.00 81 1018.6
20260507084106 27 59 3.2 4.8 0.00 0.00 0.00 81 1018.6
20260507083602 27 293 0.0 9.7 0.00 0.00 0.00 81 1018.5
20260507083100 27 175 1.6 4.8 0.00 0.00 0.00 81 1018.3
20260507082555 27 342 1.6 6.4 0.00 0.00 0.00 81 1018.5
20260507082052 27 358 1.6 11.3 0.00 0.00 0.00 81 1018.4
20260507081548 27 257 3.2 3.2 0.00 0.00 0.00 81 1018.4
20260507081045 27 346 1.6 6.4 0.00 0.00 0.00 80 1018.3
20260507080541 27 334 1.6 9.7 0.00 0.00 0.00 81 1018.4
20260507080038 27 27 1.6 4.8 0.00 0.00 0.00 81 1018.4
20260507075533 27 20 3.2 4.8 0.00 0.00 0.00 81 1018.5
20260507075030 27 312 4.8 9.7 0.00 0.00 0.00 80 1018.4
20260507074526 27 9 1.6 6.4 0.00 0.00 0.00 81 1018.3
20260507074025 27 253 4.8 6.4 0.00 0.00 0.00 80 1018.2
20260507073521 27 41 3.2 9.7 0.00 0.00 0.00 80 1018.3
20260507073018 27 29 1.6 4.8 0.00 0.00 0.00 80 1018.3
20260507072515 27 348 1.6 6.4 0.00 0.00 0.00 80 1018.3
20260507072012 27 346 1.6 6.4 0.00 0.00 0.00 80 1018.3
20260507071509 27 73 0.0 11.3 0.00 0.00 0.00 81 1018.5
20260507071006 27 103 3.2 3.2 0.00 0.00 0.00 81 1018.3
20260507070503 27 3 1.6 9.7 0.00 0.00 0.00 81 1018.6
20260507070000 27 356 4.8 6.4 0.00 0.00 0.00 81 1018.5
20260507065456 27 175 3.2 6.4 0.00 0.00 0.00 81 1018.3
20260507064953 27 206 1.6 4.8 0.00 0.00 0.00 81 1018.3
20260507064452 27 154 3.2 6.4 0.00 0.00 0.00 81 1018.6
20260507063949 27 348 3.2 4.8 0.00 0.00 0.00 81 1018.6
20260507063446 27 337 1.6 3.2 0.00 0.00 0.00 81 1018.7
20260507062943 27 345 3.2 9.7 0.00 0.00 0.00 81 1018.7
20260507062440 27 315 1.6 3.2 0.00 0.00 0.00 81 1018.7
20260507061937 27 345 1.6 9.7 0.00 0.00 0.00 81 1018.9
20260507061435 27 3 1.6 4.8 0.00 0.00 0.00 81 1018.8
20260507060934 27 351 1.6 9.7 0.00 0.00 0.00 81 1018.8
20260507060430 27 128 6.4 9.7 0.00 0.00 0.00 81 1019.0
20260507055927 27 3 1.6 3.2 0.00 0.00 0.00 80 1019.0
20260507055422 27 6 4.8 6.4 0.00 0.00 0.00 80 1019.1
20260507054919 27 343 1.6 4.8 0.00 0.00 0.00 80 1019.0
20260507054415 27 249 3.2 4.8 0.00 0.00 0.00 80 1019.0
20260507053913 27 52 1.6 4.8 0.00 0.00 0.00 80 1019.2
20260507053410 27 84 4.8 11.3 0.00 0.00 0.00 80 1019.2
20260507052909 27 21 1.6 4.8 0.00 0.00 0.00 80 1019.2
20260507052406 27 14 3.2 6.4 0.00 0.00 0.00 80 1019.1
20260507051903 27 345 0.0 1.6 0.00 0.00 0.00 80 1019.2
20260507051400 27 346 0.0 6.4 0.00 0.00 0.00 80 1019.2
20260507050857 27 73 1.6 1.6 0.00 0.00 0.00 80 1019.4
20260507050354 27 170 0.0 3.2 0.00 0.00 0.00 80 1019.4
20260507045850 27 294 1.6 4.8 0.00 0.00 0.00 80 1019.4
20260507045347 27 73 0.0 4.8 0.00 0.00 0.00 79 1019.4
20260507044844 27 349 3.2 9.7 0.00 0.00 0.00 79 1019.5
20260507044341 27 6 1.6 6.4 0.00 0.00 0.00 79 1019.5
20260507043837 27 312 1.6 6.4 0.00 0.00 0.00 79 1019.4
20260507043334 27 1 1.6 9.7 0.00 0.00 0.00 79 1019.5
20260507042830 27 344 0.0 4.8 0.00 0.00 0.00 79 1019.6
20260507042325 27 102 4.8 6.4 0.00 0.00 0.00 79 1019.9
20260507041823 27 9 1.6 11.3 0.00 0.00 0.00 79 1019.6
20260507041319 27 225 1.6 1.6 0.00 0.00 0.00 79 1020.0
20260507040816 27 347 0.0 6.4 0.00 0.00 0.00 79 1020.0
20260507040312 27 356 1.6 3.2 0.00 0.00 0.00 79 1019.9
20260507035808 27 31 4.8 6.4 0.00 0.00 0.00 79 1019.9
20260507035306 27 55 1.6 11.3 0.00 0.00 0.00 79 1019.9
20260507034802 27 80 6.4 12.9 0.00 0.00 0.00 79 1019.9
20260507034258 27 33 1.6 4.8 0.00 0.00 0.00 79 1019.9
20260507033757 27 355 3.2 6.4 0.00 0.00 0.00 79 1019.7
20260507033254 27 348 0.0 3.2 0.00 0.00 0.00 79 1019.9
20260507032751 27 355 1.6 4.8 0.00 0.00 0.00 79 1019.9
20260507032247 27 346 1.6 1.6 0.00 0.00 0.00 79 1020.1
20260507031743 27 348 1.6 9.7 0.00 0.00 0.00 79 1019.9
20260507031241 27 28 0.0 6.4 0.00 0.00 0.00 79 1020.1
20260507030737 27 6 3.2 3.2 0.00 0.00 0.00 79 1020.2
20260507030235 27 22 6.4 9.7 0.00 0.00 0.00 79 1020.1
20260507025732 27 40 6.4 11.3 0.00 0.00 0.00 80 1020.2
20260507025229 27 55 3.2 6.4 0.00 0.00 0.00 80 1020.0
20260507024727 27 229 1.6 4.8 0.00 0.00 0.00 80 1020.0
20260507024224 27 352 3.2 4.8 0.00 0.00 0.00 80 1019.9
20260507023719 27 342 1.6 3.2 0.00 0.00 0.00 80 1020.2
20260507023216 27 335 0.0 4.8 0.00 0.00 0.00 80 1020.2
20260507022714 27 262 1.6 3.2 0.00 0.00 0.00 80 1020.2
20260507022209 27 342 0.0 4.8 0.00 0.00 0.00 80 1020.1
20260507021706 27 352 1.6 3.2 0.00 0.00 0.00 80 1020.1
20260507021201 27 33 6.4 11.3 0.00 0.00 0.00 80 1019.8
20260507020700 27 300 3.2 9.7 0.00 0.00 0.00 80 1019.7
20260507020156 27 113 1.6 6.4 0.00 0.00 0.00 80 1019.7
20260507015654 27 90 1.6 9.7 0.00 0.00 0.00 80 1019.8
20260507015151 27 41 3.2 11.3 0.00 0.00 0.00 80 1019.7
20260507014647 27 32 4.8 6.4 0.00 0.00 0.00 80 1019.9
20260507014143 27 345 1.6 6.4 0.00 0.00 0.00 80 1019.6
20260507013641 27 88 3.2 9.7 0.00 0.00 0.00 80 1019.5
20260507013138 27 342 3.2 4.8 0.00 0.00 0.00 80 1019.4
20260507012635 27 33 1.6 4.8 0.00 0.00 0.00 81 1019.3
20260507012130 27 22 4.8 9.7 0.00 0.00 0.00 80 1019.2
20260507011629 27 69 3.2 11.3 0.00 0.00 0.00 80 1019.1
20260507011125 27 250 3.2 9.7 0.00 0.00 0.00 80 1018.9
20260507010620 27 119 8.0 16.1 0.00 0.00 0.00 80 1019.2
20260507010116 27 37 3.2 11.3 0.00 0.00 0.00 80 1018.8
20260507005613 27 97 3.2 12.9 0.00 0.00 0.00 80 1019.0
20260507005109 27 46 4.8 12.9 0.00 0.00 0.00 80 1018.7
20260507004606 27 39 4.8 9.7 0.00 0.00 0.00 80 1018.7
20260507004104 27 57 3.2 9.7 0.00 0.00 0.00 80 1018.6
20260507003600 27 350 4.8 6.4 0.00 0.00 0.00 80 1018.6
20260507003055 27 41 1.6 4.8 0.00 0.00 0.00 80 1018.4
20260507002552 27 61 4.8 12.9 0.00 0.00 0.00 80 1018.4
20260507002047 27 147 3.2 14.5 0.00 0.00 0.00 79 1018.5
20260507001544 27 345 3.2 16.1 0.00 0.00 0.00 80 1018.5
20260507001042 27 15 4.8 12.9 0.00 0.00 0.00 80 1018.4
20260507000538 27 73 3.2 12.9 0.00 0.00 0.00 80 1018.3
20260507000033 27 74 3.2 4.8 0.00 0.00 0.00 80 1018.3
20260506235531 27 352 4.8 9.7 0.00 0.00 0.00 79 1018.3
20260506235021 27 93 6.4 11.3 0.00 0.00 0.00 80 1018.2
20260506234519 27 85 4.8 14.5 0.00 0.00 0.00 80 1018.2
20260506234016 28 86 4.8 11.3 0.00 0.00 0.00 80 1018.1
20260506233513 28 335 3.2 17.7 0.00 0.00 0.00 79 1017.8
20260506233010 28 33 6.4 9.7 0.00 0.00 0.00 79 1017.9
20260506232506 28 2 0.0 11.3 0.00 0.00 0.00 79 1018.0
20260506232001 28 34 4.8 22.5 0.00 0.00 0.00 79 1017.7
20260506231458 28 34 4.8 14.5 0.00 0.00 0.00 79 1017.4
20260506230956 28 346 3.2 17.7 0.00 0.00 0.00 79 1017.5
20260506230452 28 66 4.8 12.9 0.00 0.00 0.00 79 1017.5
20260506225949 28 31 8.0 11.3 0.00 0.00 0.00 78 1017.7
20260506225447 28 54 3.2 9.7 0.00 0.00 0.00 79 1017.7
20260506224943 28 51 6.4 16.1 0.00 0.00 0.00 78 1017.4
20260506224440 28 77 8.0 16.1 0.00 0.00 0.00 78 1017.5
20260506223936 28 53 3.2 12.9 0.00 0.00 0.00 78 1017.2
20260506223432 28 45 6.4 11.3 0.00 0.00 0.00 77 1017.3
20260506222930 28 7 11.3 16.1 0.00 0.00 0.00 77 1017.1
20260506222426 28 23 3.2 14.5 0.00 0.00 0.00 76 1017.1
20260506221923 28 71 6.4 16.1 0.00 0.00 0.00 75 1017.2
20260506221420 29 58 3.2 12.9 0.00 0.00 0.00 75 1017.1
20260506220918 29 110 4.8 14.5 0.00 0.00 0.00 75 1016.8
20260506220414 29 20 6.4 9.7 0.00 0.00 0.00 74 1017.0
20260506215910 29 69 6.4 12.9 0.00 0.00 0.00 74 1017.0
20260506215406 29 93 4.8 16.1 0.00 0.00 0.00 74 1017.1
20260506214902 29 76 6.4 17.7 0.00 0.00 0.00 73 1017.1
20260506214359 29 19 6.4 14.5 0.00 0.00 0.00 73 1017.1
20260506213857 30 31 6.4 14.5 0.00 0.00 0.00 73 1017.1
20260506213354 30 87 4.8 9.7 0.00 0.00 0.00 72 1017.1
20260506212851 30 105 3.2 16.1 0.00 0.00 0.00 71 1016.9
20260506212347 30 359 6.4 11.3 0.00 0.00 0.00 71 1016.8
20260506211842 30 350 4.8 11.3 0.00 0.00 0.00 71 1016.9
20260506211338 30 69 3.2 11.3 0.00 0.00 0.00 70 1016.9
20260506210836 30 10 4.8 9.7 0.00 0.00 0.00 70 1017.0
20260506210332 30 50 3.2 6.4 0.00 0.00 0.00 71 1017.1
20260506205830 31 344 3.2 9.7 0.00 0.00 0.00 70 1017.2
20260506205325 31 8 1.6 9.7 0.00 0.00 0.00 70 1017.2
20260506204822 30 19 4.8 11.3 0.00 0.00 0.00 69 1017.1
20260506204320 31 1 1.6 20.9 0.00 0.00 0.00 69 1017.1
20260506203817 31 314 3.2 14.5 0.00 0.00 0.00 69 1017.4
20260506203314 31 80 6.4 12.9 0.00 0.00 0.00 68 1017.3
20260506202811 31 75 4.8 12.9 0.00 0.00 0.00 69 1017.5
20260506202308 31 14 1.6 11.3 0.00 0.00 0.00 69 1017.3
20260506201804 31 86 6.4 12.9 0.00 0.00 0.00 68 1017.4
20260506201302 31 292 3.2 4.8 0.00 0.00 0.00 66 1017.5
20260506200759 31 337 3.2 9.7 0.00 0.00 0.00 67 1017.5
20260506200255 31 65 8.0 12.9 0.00 0.00 0.00 67 1017.5
20260506195751 31 342 4.8 9.7 0.00 0.00 0.00 67 1017.6
20260506195247 32 126 6.4 20.9 0.00 0.00 0.00 65 1017.7
20260506194745 32 54 3.2 6.4 0.00 0.00 0.00 63 1017.4
20260506194241 32 356 1.6 11.3 0.00 0.00 0.00 64 1017.7
20260506193739 32 330 3.2 12.9 0.00 0.00 0.00 63 1017.6
20260506193236 31 357 3.2 12.9 0.00 0.00 0.00 65 1018.0
20260506192732 32 106 4.8 16.1 0.00 0.00 0.00 64 1017.6
20260506192229 31 242 1.6 11.3 0.00 0.00 0.00 65 1017.9
20260506191726 31 46 3.2 12.9 0.00 0.00 0.00 65 1017.9
20260506191222 31 6 3.2 11.3 0.00 0.00 0.00 67 1017.7
20260506190719 31 102 9.7 14.5 0.00 0.00 0.00 66 1017.8
20260506190216 31 53 4.8 11.3 0.00 0.00 0.00 66 1017.7
20260506185713 32 343 4.8 11.3 0.00 0.00 0.00 65 1017.8
20260506185209 32 0 3.2 9.7 0.00 0.00 0.00 64 1018.0
20260506184707 32 28 6.4 20.9 0.00 0.00 0.00 65 1018.2
20260506184204 32 315 1.6 9.7 0.00 0.00 0.00 64 1018.1
20260506183701 32 190 8.0 12.9 0.00 0.00 0.00 64 1018.2
20260506183156 32 346 3.2 11.3 0.00 0.00 0.00 64 1018.1
20260506182654 32 216 6.4 16.1 0.00 0.00 0.00 63 1018.3
20260506182152 32 42 6.4 17.7 0.00 0.00 0.00 63 1018.4
20260506181649 32 48 1.6 6.4 0.00 0.00 0.00 63 1018.4
20260506181146 32 0 3.2 9.7 0.00 0.00 0.00 64 1018.6
20260506180643 31 313 3.2 6.4 0.00 0.00 0.00 65 1018.6
20260506180139 31 105 3.2 6.4 0.00 0.00 0.00 64 1019.0
20260506175636 32 97 3.2 12.9 0.00 0.00 0.00 63 1019.0
20260506175132 32 110 3.2 9.7 0.00 0.00 0.00 62 1018.9
20260506174631 32 349 1.6 9.7 0.00 0.00 0.00 63 1019.1
20260506174127 32 356 3.2 16.1 0.00 0.00 0.00 63 1019.3
20260506173625 31 340 1.6 14.5 0.00 0.00 0.00 65 1019.3
20260506173121 32 350 4.8 14.5 0.00 0.00 0.00 65 1019.2
20260506172619 32 107 3.2 9.7 0.00 0.00 0.00 64 1019.4
20260506172115 32 29 6.4 11.3 0.00 0.00 0.00 64 1019.4
20260506171613 32 57 8.0 12.9 0.00 0.00 0.00 63 1019.7
20260506171111 32 265 6.4 11.3 0.00 0.00 0.00 61 1019.6
20260506170608 32 339 3.2 14.5 0.00 0.00 0.00 62 1019.8
20260506170105 32 333 3.2 22.5 0.00 0.00 0.00 63 1019.6
20260506165603 32 315 8.0 16.1 0.00 0.00 0.00 61 1020.0
20260506165059 32 340 4.8 14.5 0.00 0.00 0.00 62 1019.9
20260506164556 32 179 3.2 9.7 0.00 0.00 0.00 62 1020.0
20260506164053 32 285 4.8 16.1 0.00 0.00 0.00 64 1019.9
20260506163549 32 218 3.2 17.7 0.00 0.00 0.00 64 1020.1
20260506163046 32 356 3.2 12.9 0.00 0.00 0.00 64 1020.0
20260506162542 32 159 4.8 14.5 0.00 0.00 0.00 63 1020.2
20260506162039 32 357 3.2 20.9 0.00 0.00 0.00 63 1020.2
20260506161536 32 16 1.6 11.3 0.00 0.00 0.00 64 1020.2
20260506161033 32 322 8.0 12.9 0.00 0.00 0.00 63 1020.2
20260506160531 32 256 9.7 20.9 0.00 0.00 0.00 63 1020.4
20260506160028 32 225 9.7 12.9 0.00 0.00 0.00 63 1020.1
20260506155526 32 348 4.8 12.9 0.00 0.00 0.00 63 1020.5
20260506153657 32 318 3.2 9.7 0.00 0.00 0.00 64 1020.6
20260506153154 31 170 1.6 6.4 0.00 0.00 0.00 66 1020.6
20260506152651 31 222 4.8 11.3 0.00 0.00 0.00 66 1020.5
20260506152149 31 19 3.2 20.9 0.00 0.00 0.00 66 1020.8
20260506151648 31 79 4.8 14.5 0.00 0.00 0.00 65 1020.6
20260506151144 31 103 6.4 12.9 0.00 0.00 0.00 64 1020.8
20260506150641 32 216 8.0 11.3 0.00 0.00 0.00 64 1020.6
20260506150138 31 255 3.2 6.4 0.00 0.00 0.00 65 1020.7